EW5461 Weather Reports


Display with metric or nautical units.
time (UTC)temp
F
wind
direction
speed
MPH
gust
MPH
rain 1hr
in
rain 24hr
in
rain mn
in
humidity
%
barometer
mb
20260903071537 80 113 0.0 2.0 0.00 0.00 0.00 73 1010.6
20260903070034 81 113 0.0 4.0 0.00 0.00 0.00 72 1010.7
20260903064533 81 109 0.0 2.0 0.00 0.00 0.00 71 1010.9
20260903063032 82 119 1.0 5.0 0.00 0.00 0.00 70 1010.9
20260903061530 82 64 1.0 7.0 0.00 0.00 0.00 70 1011.0
20260903060025 83 111 0.0 5.0 0.00 0.00 0.00 68 1011.2
20260903054523 83 111 1.0 4.0 0.00 0.00 0.00 67 1011.2
20260903053019 83 132 0.0 4.0 0.00 0.00 0.00 66 1010.9
20260903051516 84 46 0.0 3.0 0.00 0.00 0.00 66 1011.1
20260903050014 84 112 0.0 6.0 0.00 0.00 0.00 65 1010.9
20260903044512 85 155 1.0 7.0 0.00 0.00 0.00 65 1010.8
20260903043012 85 98 1.0 5.0 0.00 0.00 0.00 63 1010.8
20260903041512 86 76 3.0 9.0 0.00 0.00 0.00 62 1010.9
20260903040011 86 162 0.0 5.0 0.00 0.00 0.00 62 1011.0
20260903034518 87 132 0.0 5.0 0.00 0.00 0.00 61 1011.0
20260903033010 88 69 1.0 7.0 0.00 0.00 0.00 59 1011.0
20260903031510 89 108 3.0 10.0 0.00 0.00 0.00 58 1010.7
20260903030009 89 78 1.0 8.0 0.00 0.00 0.00 57 1010.5
20260903024509 90 82 0.0 7.0 0.00 0.00 0.00 56 1010.3
20260903023008 90 130 1.0 7.0 0.00 0.00 0.00 55 1010.2
20260903021508 91 94 2.0 7.0 0.00 0.00 0.00 54 1010.0
20260903020018 91 76 0.0 4.0 0.00 0.00 0.00 53 1009.7
20260903014506 92 106 0.0 7.0 0.00 0.00 0.00 52 1009.6
20260903013009 92 79 1.0 7.0 0.00 0.00 0.00 51 1009.4
20260903011510 93 42 1.0 7.0 0.00 0.00 0.00 49 1009.2
20260903010007 94 148 1.0 9.0 0.00 0.00 0.00 48 1009.1
20260903004505 96 106 2.0 11.0 0.00 0.00 0.00 46 1009.0
20260903003005 98 147 1.0 7.0 0.00 0.00 0.00 43 1008.9
20260903001504 99 36 1.0 4.0 0.00 0.00 0.00 40 1008.9
20260903000004 98 115 1.0 10.0 0.00 0.00 0.00 41 1008.9
20260902234502 99 107 1.0 7.0 0.00 0.00 0.00 40 1008.9
20260902233007 100 26 3.0 10.0 0.00 0.00 0.00 40 1008.9
20260902231503 100 57 1.0 6.0 0.00 0.00 0.00 40 1008.9
20260902230001 100 87 1.0 7.0 0.00 0.00 0.00 39 1008.8
20260902224601 100 53 1.0 6.0 0.00 0.00 0.00 41 1009.0
20260902223120 100 136 1.0 9.0 0.00 0.00 0.00 39 1008.9
20260902221600 101 348 1.0 7.0 0.00 0.00 0.00 40 1009.1
20260902220101 100 317 1.0 5.0 0.00 0.00 0.00 42 1009.2
20260902214556 101 344 1.0 5.0 0.00 0.00 0.00 39 1009.4
20260902213053 99 69 3.0 8.0 0.00 0.00 0.00 39 1009.4
20260902211554 101 46 2.0 5.0 0.00 0.00 0.00 39 1009.7
20260902210048 100 111 0.0 4.0 0.00 0.00 0.00 42 1009.7
20260902204610 99 46 2.0 8.0 0.00 0.00 0.00 43 1009.9
20260902203044 99 57 2.0 10.0 0.00 0.00 0.00 43 1010.1
20260902201541 99 89 1.0 6.0 0.00 0.00 0.00 41 1010.3
20260902200041 99 5 2.0 8.0 0.00 0.00 0.00 42 1010.5
20260902194634 99 24 2.0 6.0 0.00 0.00 0.00 43 1010.8
20260902193034 97 303 1.0 4.0 0.00 0.00 0.00 43 1011.0
20260902191529 96 89 1.0 8.0 0.00 0.00 0.00 46 1011.4
20260902190032 98 15 4.0 9.0 0.00 0.00 0.00 43 1011.5
20260902184532 97 45 2.0 4.0 0.00 0.00 0.00 45 1011.8
20260902183037 96 89 1.0 8.0 0.00 0.00 0.00 47 1012.0
20260902181517 95 53 1.0 6.0 0.00 0.00 0.00 48 1012.3
20260902180016 96 5 1.0 5.0 0.00 0.00 0.00 47 1012.6
20260902174518 96 147 2.0 5.0 0.00 0.00 0.00 47 1012.8
20260902173016 95 142 0.0 6.0 0.00 0.00 0.00 48 1013.1
20260902171506 95 253 1.0 4.0 0.00 0.00 0.00 46 1013.2
20260902170004 94 165 0.0 3.0 0.00 0.00 0.00 48 1013.4
20260902164605 93 70 2.0 5.0 0.00 0.00 0.00 49 1013.5
20260902163055 92 155 2.0 6.0 0.00 0.00 0.00 51 1013.7
20260902161555 92 64 1.0 6.0 0.00 0.00 0.00 53 1013.8
20260902160050 92 101 0.0 3.0 0.00 0.00 0.00 54 1013.9
20260902154545 90 130 0.0 5.0 0.00 0.00 0.00 55 1013.9
20260902153053 90 250 1.0 4.0 0.00 0.00 0.00 57 1013.9
20260902151543 89 129 1.0 5.0 0.00 0.00 0.00 58 1013.8
20260902150041 88 81 0.0 4.0 0.00 0.00 0.00 60 1013.9
20260902144540 87 119 1.0 4.0 0.00 0.00 0.00 62 1013.9
20260902143039 87 34 0.0 3.0 0.00 0.00 0.00 65 1013.9
20260902141538 85 98 0.0 4.0 0.00 0.00 0.00 66 1013.9
20260902140038 84 113 0.0 3.0 0.00 0.00 0.00 69 1013.9
20260902134537 83 85 0.0 3.0 0.00 0.00 0.00 71 1013.9
20260902133036 81 68 0.0 3.0 0.00 0.00 0.00 74 1013.9
20260902131535 80 68 0.0 2.0 0.00 0.00 0.00 75 1013.9
20260902130033 79 68 0.0 2.0 0.00 0.00 0.00 76 1013.6
20260902124532 79 67 0.0 0.0 0.00 0.00 0.00 76 1013.5
20260902123031 79 67 0.0 0.0 0.00 0.00 0.00 76 1013.3
20260902121529 79 98 0.0 0.0 0.00 0.00 0.00 75 1013.1
20260902120028 79 98 0.0 0.0 0.00 0.00 0.00 74 1013.2
20260902114526 79 98 0.0 0.0 0.00 0.00 0.00 73 1013.2
20260902113024 80 128 0.0 1.0 0.00 0.00 0.00 73 1013.2
20260902111524 80 143 0.0 0.0 0.00 0.00 0.00 72 1013.1
20260902110036 80 143 0.0 0.0 0.00 0.00 0.00 72 1013.1
20260902104533 80 143 0.0 0.0 0.00 0.00 0.00 72 1013.1
20260902103036 80 143 0.0 0.0 0.00 0.00 0.00 71 1013.1
20260902101520 81 143 0.0 0.0 0.00 0.00 0.00 71 1013.0
20260902100018 81 143 0.0 0.0 0.00 0.00 0.00 70 1012.9
20260902094516 81 143 0.0 0.0 0.00 0.00 0.00 70 1013.0
20260902093014 82 143 0.0 2.0 0.00 0.00 0.00 68 1013.0
20260902091514 82 180 0.0 2.0 0.00 0.00 0.00 68 1013.1
20260902090020 83 180 0.0 4.0 0.00 0.00 0.00 66 1013.2
20260902084509 83 163 1.0 6.0 0.00 0.00 0.00 66 1013.1
20260902083007 83 162 0.0 3.0 0.00 0.00 0.00 65 1013.1
20260902081505 84 169 1.0 4.0 0.00 0.00 0.00 64 1013.2
20260902080005 84 167 1.0 5.0 0.00 0.00 0.00 63 1013.1